This demonstration page uses our WeatherBlox Daily Observations layout. Learn more.

39.08367, -84.50855

Hourly Observations for September 20, 2019

Temp ( °F °C ) Dew Point ( °F °C ) Humidity (%) Winds ( mph kmh ) Pressure ( in mb ) Visibility ( mi km ) Precip ( " mm )
12:53 am 00:53 Clear 68 20 65 18.3 90 90 Calm 30.09 1019 10 16.09344 0 0
1:53 am 01:53 Clear 67 19.4 65 18.3 93 93 Calm 30.09 1019 10 16.09344 0 0
2:53 am 02:53 Clear 67 19.4 65 18.3 93 93 Calm 30.09 1019 10 16.09344 0 0
3:53 am 03:53 Clear 67 19.4 65 18.3 93 93 Calm 30.12 1020 10 16.09344 0 0
4:53 am 04:53 Partly Cloudy 65 18.3 65 18.3 100 100 Calm 30.12 1020 7 11.265408 0 0
5:19 am 05:19 Clear with Mist and Fog 65 18.3 64 17.8 97 97 Calm 30.12 1020 2.5 4.02336 0 0
5:28 am 05:28 Clear 65 18.3 64 17.8 97 97 Calm 30.12 1020 9 14.484096 0 0
5:53 am 05:53 Clear 65 18.3 65 18.3 100 100 Calm 30.12 1020 7 11.265408 0 0
6:53 am 06:53 Clear 65 18.3 64 17.8 97 97 Calm 30.15 1021 10 16.09344 0 0
7:53 am 07:53 Mostly Sunny 63 17.2 63 17.2 100 100 Calm 30.15 1021 10 16.09344 0 0
8:53 am 08:53 Mostly Sunny 70 21.1 66 18.9 87 87 Calm 30.18 1022 10 16.09344 0 0
9:53 am 09:53 Mostly Sunny 74 23.3 66 18.9 76 76 S 8 13 30.18 1022 10 16.09344 0 0
10:53 am 10:53 Partly Cloudy 79 26.1 66 18.9 65 65 SSW 12 19 30.18 1022 10 16.09344 0 0
11:53 am 11:53 Sunny 80 26.7 66 18.9 62 62 S 12 19 30.15 1021 10 16.09344 0 0
12:53 pm 12:53 Mostly Sunny 82 27.8 67 19.4 60 60 SSW 9 15 30.15 1021 10 16.09344 0 0
1:53 pm 13:53 Mostly Sunny 84 28.9 68 20 59 59 SSW 13 20 30.15 1021 10 16.09344 0 0
2:53 pm 14:53 Mostly Sunny 85 29.4 68 20 57 57 S 6 9 30.12 1020 10 16.09344 0 0
3:53 pm 15:53 Partly Cloudy 85 29.4 67 19.4 55 55 SSW 10 17 30.12 1020 10 16.09344 0 0
4:53 pm 16:53 Partly Cloudy 86 30 68 20 55 55 S 12 19 30.12 1020 10 16.09344 0 0
5:53 pm 17:53 Sunny 85 29.4 66 18.9 53 53 SSW 10 17 30.09 1019 10 16.09344 0 0
6:53 pm 18:53 Sunny 81 27.2 68 20 65 65 S 10 17 30.12 1020 10 16.09344 0 0
7:53 pm 19:53 Clear 75 23.9 67 19.4 76 76 S 6 9 30.12 1020 10 16.09344 0 0
8:53 pm 20:53 Clear 74 23.3 67 19.4 79 79 S 7 11 30.15 1021 10 16.09344 0 0
9:53 pm 21:53 Clear 73 22.8 67 19.4 81 81 Calm 30.15 1021 10 16.09344 0 0
10:53 pm 22:53 Mostly Cloudy 71 21.7 68 20 90 90 Calm 30.15 1021 10 16.09344 0 0
11:53 pm 23:53 Partly Cloudy 70 21.1 68 20 93 93 Calm 30.18 1022 10 16.09344 0 0

Powered by AerisWeather